Location: The Jewett Observatory
(46.7288°N, 117.1525°W)
Time: 00:24:12
(UTC-07:00)

Cosmos 1633 - Visible Passes

Search period start: 02 July 2016 00:00
Search period end: 12 July 2016 00:00
Orbit: 475 x 494 km, 82.5° (Epoch: 01 July)

Date Brightness Start Highest point End Pass type
(mag) Time Alt. Az. Time Alt. Az. Time Alt. Az.
02 Jul 4.7 02:20:18 13° SE 02:22:27 21° E 02:25:15 10° NE visible
02 Jul 3.8 03:54:40 12° SW 03:57:22 27° WNW 04:00:33 10° NNW visible
03 Jul 5.1 01:55:59 10° ESE 01:57:52 14° E 01:59:47 10° NE visible
03 Jul 3.2 03:30:18 19° SW 03:32:33 42° WNW 03:36:04 10° N visible
04 Jul 2.6 03:05:55 27° SSW 03:07:46 69° W 03:11:27 10° N visible
05 Jul 2.6 02:41:31 32° S 02:43:02 72° E 02:46:43 10° NNE visible
06 Jul 3.4 02:17:06 31° SE 02:18:21 43° E 02:21:51 10° NNE visible
06 Jul 4.8 03:51:39 10° WSW 03:53:41 14° WNW 03:55:43 10° NW visible
07 Jul 4.1 01:52:40 24° ESE 01:53:41 27° E 01:56:51 10° NNE visible
07 Jul 4.3 03:27:02 15° WSW 03:28:46 21° WNW 03:31:37 10° NNW visible
08 Jul 4.6 01:28:13 17° ESE 01:29:05 18° E 01:31:38 10° NE visible
08 Jul 3.7 03:02:35 24° WSW 03:03:55 31° WNW 03:07:15 10° N visible
09 Jul 5.1 01:03:45 11° E 01:04:31 12° E 01:05:56 10° ENE visible
09 Jul 3.0 02:38:07 38° SW 02:39:05 50° WNW 02:42:42 10° N visible
10 Jul 2.5 02:13:38 57° SSW 02:14:19 83° W 02:18:01 10° N visible
11 Jul 2.7 01:49:08 55° SE 01:49:35 60° E 01:53:13 10° NNE visible
11 Jul 5.0 03:23:59 10° W 03:25:04 11° WNW 03:26:11 10° NW visible
